Location: Fundy National Park
(45.6138°N, 65.0316°W)
Time: 20:40:17
(UTC-04:00)

BlueWalker 3 - Pass Details

Date: 29 November 2022
Orbit: 499 x 517 km, 53.2° (Epoch: 05 February)

Event Time Altitude Azimuth Distance (km) Brightness Sun altitude
Rises 17:40:55 0° 262° (W) 2,625 7.4 -10.6°
Reaches altitude 10° 17:43:14 10° 271° (W) 1,737 5.9 -11.0°
Maximum altitude 17:46:55 38° 341° (NNW) 790 2.9 -11.6°
Enters shadow 17:49:42 16° 44° (NE) 1,401 3.7 -12.1°
